Skip Page Navigation
NASA JPL Caltech
NASA Logo - Jet Propulsion Laboratory + View the NASA Portal
+ Center for Near-Earth Object Studies
JPL Home Earth Solar System Stars & Galaxies Technology
JPL Solar System Dynamics
BODIES ORBITS EPHEMERIDES TOOLS PHYSICAL DATA DISCOVERY FAQ SITE MAP
JPL Small-Body Database Browser
Search: [ help ]  
276 Adelheid (A888 HA)
Classification: Main-belt Asteroid          SPK-ID: 2000276
Ephemeris | Orbit Diagram | Orbital Elements | Mission Design | Physical Parameters | Discovery Circumstances | Close-Approach Data ]

[ show orbit diagram ]
Orbital Elements at Epoch 2459396.5 (2021-Jul-01.0) TDB
Reference: JPL 58 (heliocentric ecliptic J2000)
 Element Value Uncertainty (1-sigma)   Units 
e .06642283184221677 1.2776e-08  
a 3.117469034556105 1.1091e-08 au
q 2.910397913100467 4.0028e-08 au
i 21.6095252828321 4.7281e-07 deg
node 211.1348646078819 1.424e-06 deg
peri 265.169978067715 1.4606e-05 deg
M 166.6851614582511 1.6116e-05 deg
tp 2458465.614878988222
(2018-Dec-13.11487899)
8.7644e-05 TDB
period 2010.48875996185
5.50
1.0729e-05
2.937e-08
d
yr
n .1790609364097272 9.5559e-10 deg/d
Q 3.324540156011744 1.1828e-08 au
  Orbit Determination Parameters
   # obs. used (total)      3339  
   data-arc span      44600 days (122.11 yr)  
   first obs. used      1899-05-14  
   last obs. used      2021-06-23  
   planetary ephem.      DE441  
   SB-pert. ephem.      SB441-N16  
   condition code      0  
   norm. resid. RMS      .42258  
   source      ORB  
   producer      Otto Matic  
   solution date      2021-Jul-08 10:49:29  

Additional Information
 Earth MOID = 2.0186 au 
 Jupiter MOID = 1.86378 au 
 T_jup = 3.105 
[ show covariance matrix ]

Ephemeris | Orbit Diagram | Orbital Elements | Mission Design | Physical Parameters | Discovery Circumstances | Close-Approach Data ]

Physical Parameter Table
Parameter Symbol Value Units Sigma Reference Notes
absolute magnitude H 8.65   n/a E2021B10  
diameter diameter 114.723 km 3.276 urn:nasa:pds:neowise_diameters_albedos::2.0[mainbelt] (http://adsabs.harvard.edu/abs/2014ApJ...791..121M)  
rotation period rot_per 6.315 h n/a LCDB (Rev. 2020-October); Warner et al., 2009 Published Reference List:
[Dotto, E.; Rotundi, A.; De Sanctis, M.C. (1992) in Physical Properties of Small Solar System Bodies. A. Brahic, J.-C. Gerard, J. Surdej, eds. Universite de Liege, Institut d'Astrophysique, Liege, p. 211.]
[Piironen, J.; Bowell, E.; Erikson, A.; Magnusson, P. (1994) Astron. Astrophys. Suppl. Ser. 106, 587-595.]
[Di Martino, M.; Dotto, E.; Celino, A.; Barucci, M.A.; Fulchignoni, M. (1995) Astron. Astrophys. Suppl. Ser. 112, 1-7.]
[Wang, X.-B.; Shi, Y. (2002) Earth, Moon, and Planets 91, 181-186; Wang, X.-B. (2002) Proc. ACM 2002, ESA SP 500, 501-503.]
[Pray, D. (2005) Minor Planet Bull. 32, 8-9.]
[Sada, P.V. (2006) Minor Planet Bull. 33, 78-79.]
[Marciniak, A.; Michalowski, T.; Kaasalainen, M.; Durech, J.; et al. (2007) Astron. Astrophys. 473, 633-639.]
[Durech, J.; Kaasalainen, M.; Herald, D.; Dunham, D.; et al. (2011) Icarus 214, 652-670.]
[Hanus, J.; Marchis, F.; Durech, J. (2013) Icarus 226, 1045-1057.]
[Alton, K.B. (2019) Minor Planet Bull. 46, 114-117.]
geometric albedo albedo 0.051   0.006 urn:nasa:pds:neowise_diameters_albedos::2.0[mainbelt] (http://adsabs.harvard.edu/abs/2014ApJ...791..121M)  
B-V BV 0.708   0.021 EAR-A-5-DDR-UBV-MEAN-VALUES-V1.2 #obs=6; phase (min.=3.50, mean=11.64, max.=17.42) deg.
U-B UB 0.271   0.029 EAR-A-5-DDR-UBV-MEAN-VALUES-V1.2 #obs=5; phase (min.=3.50, mean=10.48, max.=17.33) deg.
Tholen spectral type spec_T X   n/a EAR-A-5-DDR-TAXONOMY-V4.0 used 7 color indices

276 Adelheid (A888 HA)          Discovered 1888-Apr-17 by Palisa, J. at Vienna
Reference: DISCOVERY.DBLast Updated: 2003-08-29

[ show close-approach data ]
Ephemeris | Orbit Diagram | Orbital Elements | Mission Design | Physical Parameters | Discovery Circumstances | Close-Approach Data ]
ABOUT SSD CREDITS/AWARDS PRIVACY/COPYRIGHT GLOSSARY LINKS
FirstGov 2021-Aug-01 08:59 UT
(server date/time)  
NASA Home Page
Site Manager:   Ryan S. Park
Webmaster  Alan B. Chamberlin